COSMOS 1275 DEB, 12674

Orbit data source: Space-Track

COSMOS 1275 DEB, 12674 is space debris in LEO originally from a launch on Thu, 04 Jun 1981 UTC launched from the Plesetsk Missile And Space Complex (PKMTR). Debris objects in space refer to the collection of defunct objects orbiting the Earth. Examples of debris include non-operational satellites, rocket bodies, and fragments generated from explosions, collisions, or faulty payload assembly.

Loading next visibility...
Identifier
12674, 1981-053AE
Orbit
LEO
Last TLE update
15 hours ago
Origin
Manufacturer
Unknown
Mission
Spacecraft
Bus & Motor
Unknown
Mass
Unknown
Launch date (UTC)
1981-06-04 (44 years ago)
Launch vehicle
Unknown
Launch site
Plesetsk Missile And Space Complex (PKMTR)
Object type
Payload
Rocket body
Debris
Shape & HBR
Unknown
Radar Cross Section
Medium (>0.1 m² and <1 m²)

Expand to show TLE details & history

TLE from 15 hours ago
0 COSMOS 1275 DEB
1 12674U 81053AE  25181.74393700  .00000481  00000-0  47520-3 0  9991
2 12674  82.9355 266.9059 0099844 242.1153 238.4325 13.74624536191530
Epoch: 2025-06-30T17:51Z
TLE epoch observation values (Epoch: 2025-06-30T17:51:16.156Z)
Latitude
59.75613°
Longitude
-112.16857°
Altitude
1,032.179 km
Speed
7.322 km/s
True Right ascension
04h 58m 47s
True Declination
59° 36' 43"
Sunlit
Object was in daylight at epoch
Visualization orbit readout
Latitude
67.9677°
Longitude
97.29935°
Altitude
1,067.428 km
Speed
7.288 km/s
Apparent Right ascension
10h 56m 33s
Apparent Declination
44° 31' 18"
Sunlit
Object is in daylight
Visualization observer readout
Local Sidereal Time
20:57:54
Azimuth
339.333° N
Elevation
-1.448°
Doppler factor
1
Orbital elements
Apogee altitude
1,053.632 km
Perigee altitude
906.696 km
Semi-major axis
7,358.301 km
Eccentricity
0.00998
Inclination
82.9355°
RAAN
266.9059°
Arg. of periapsis
242.1153°
True anomaly
Unknown
Mean anomaly
238.4325°
Eccentric anomaly
Unknown
Mean motion
3.43856 °/min
Orbital period
104.69 mins
BSTAR
0.0004752
Loading maneuver chart data...
Loading SW <> Apogee altitude chart data...
Loading historical data...
Loading historical data...
Loading historical data...
Loading historical data...
Loading historical data...
Loading historical data...
Loading historical data...

COSMOS 1275 DEB Visibility forecast

Observer location: undefined°, undefined°

Span
Click to sort rows by Start time (UTC) header in descending order
Start Az.
Max El. time (UTC)
Max El. Az.
Max El.
End time (UTC)
End Az.
10 mins2025-07-01 16:33:38.656Z14.009° NNE2025-07-01 16:38:38.656Z66.172° ENE26.215°2025-07-01 16:43:38.656Z128.087° SE
9 mins2025-07-01 18:20:38.656Z329.81° NNW2025-07-01 18:24:38.656Z272.169° WNW33.079°2025-07-01 18:29:38.656Z207.055° SW
11 mins2025-07-02 06:03:38.656Z172.792° S2025-07-02 06:08:38.656Z104.962° ESE42.919°2025-07-02 06:14:38.656Z13.126° NNE
7 mins2025-07-02 07:51:38.656Z256.688° W2025-07-02 07:54:38.656Z287.705° WNW18.347°2025-07-02 07:58:38.656Z329.082° NNW
|